User: anonymous   Login
Location: Unspecified
(0.0000°N, 0.0000°E)
Time: 05:19:13
(UTC+00:00)
Language:

OBJECT AP - Orbit

View from above orbital plane
View from above orbital plane
View from above satellite
View from above satellite

Ground track
Ground track

The orbit is defined by the following mean orbital elements,

1 57203U          26121.93112359 +.00000000 +00000-0 +48459-3 0 00008
2 57203  97.5115 188.5467 0007084 234.7375 125.3204 15.30923464    00
Epoch (UTC): 01 May 2026 22:20:49
Eccentricity: 0.0007084
inclination: 97.5115°
perigee height: 468 km
apogee height: 478 km
right ascension of ascending node: 188.5467°
argument of perigee: 234.7375°
revolutions per day: 15.30923464
mean anomaly at epoch: 125.3204°

The dashed part of the orbit path shows where the satellite is in the earth's shadow,  

DLR